This is the latest recevied weather packets stored in our database for station/object KO4WIL-13. If no packets are shown the sender has not sent any weather packets the latest 10 day(s).
| Time | Temp. | Humidity | Pressure | Rain* | Wind** | Luminosity | Snow |
|---|---|---|---|---|---|---|---|
| 1777796436 | 6.11° C | 74% | 970.4 hPa | 0 mm | - | - | - |
| 1777796134 | 6.11° C | 74% | 970.4 hPa | 0 mm | - | - | - |
| 1777795833 | 5.56° C | 74% | 970.3 hPa | 0 mm | - | - | - |
| 1777795531 | 5.56° C | 76% | 970.3 hPa | 0 mm | - | - | - |
| 1777795229 | 5.56° C | 75% | 970.2 hPa | 0 mm | - | - | - |
| 1777794927 | 5.56° C | 74% | 970.1 hPa | 0 mm | - | - | - |
| 1777794625 | 5.56° C | 74% | 970 hPa | 0 mm | - | - | - |
| 1777794323 | 5.56° C | 74% | 970.1 hPa | 0 mm | - | - | - |
| 1777794021 | 5.56° C | 75% | 970.1 hPa | 0 mm | - | - | - |
| 1777793719 | 6.11° C | 74% | 970.2 hPa | 0 mm | - | - | - |
| 1777793417 | 6.11° C | 74% | 970.1 hPa | 0 mm | - | - | - |
| 1777793115 | 6.11° C | 74% | 970.1 hPa | 0 mm | - | - | - |
| 1777792813 | 6.67° C | 72% | 970.1 hPa | 0 mm | - | - | - |
| 1777792511 | 6.67° C | 72% | 969.9 hPa | 0 mm | - | - | - |
| 1777792209 | 6.67° C | 71% | 969.8 hPa | 0 mm | - | - | - |
| 1777791907 | 6.67° C | 73% | 969.8 hPa | 0 mm | - | - | - |
| 1777791605 | 7.22° C | 72% | 969.8 hPa | 0 mm | - | - | - |
| 1777791303 | 7.22° C | 71% | 969.7 hPa | 0 mm | - | - | - |
| 1777791001 | 7.22° C | 71% | 969.8 hPa | 0 mm | - | - | - |
| 1777790700 | 7.22° C | 71% | 969.8 hPa | 0 mm | - | - | - |
| 1777790397 | 7.78° C | 70% | 969.7 hPa | 0 mm | - | - | - |
| 1777790095 | 7.78° C | 68% | 969.7 hPa | 0 mm | - | - | - |
| 1777789793 | 7.78° C | 68% | 969.7 hPa | 0 mm | - | - | - |
| 1777789492 | 7.78° C | 67% | 969.8 hPa | 0 mm | - | - | - |
| 1777789190 | 7.78° C | 67% | 969.8 hPa | 0 mm | - | - | - |
* Rain latest hour (hover to see other rain measurements)
** Current wind speed in m/s (hover to see current wind gust speed)